Weather History for KSTK - January, 2014

Change the Weather History Date:

Thursday, January 23, 2014

  Actual Average Record
Temperature  
Mean Temperature 10 °F -  
Max Temperature 21 °F 42 °F 46 °F (2015)
Min Temperature 0 °F 13 °F 0 °F (2014)
Degree Days  
Heating Degree Days 54    
Moisture  
Dew Point 4 °F    
Average Humidity 79    
Maximum Humidity 92    
Minimum Humidity 63    
Precipitation  
Precipitation 0.00 in - - ()
Sea Level Pressure  
Sea Level Pressure 30.46 in    
Wind  
Wind Speed 7 mph (SSW)    
Max Wind Speed 13 mph    
Max Gust Speed -    
Visibility 9 miles    
Events Snow    
Averages and records for this station are not official NWS values.
T = Trace of Precipitation, MM = Missing Value Source: NWS Daily Summary

Daily Weather History Graph

Daily Weather History Graph

Search for Another Location

Airport or City:

Trip Planner

Search our weather history database for the weather conditions in past years. The results will help you decide how hot, cold, wet, or windy it might be!

Date:

Astronomy

Jan. 23, 2014 Rise Set
Actual Time 7:10 AM MST 5:00 PM MST
Civil Twilight 6:40 AM MST 5:29 PM MST
Nautical Twilight 6:07 AM MST 6:02 PM MST
Astronomical Twilight 5:35 AM MST 6:35 PM MST
Moon No Moon Rise 10:44 AM MST (1/23)
Length of Visible Light 10h 48m
Length of Day
9h 49m
Waning Gibbous, 54% of the Moon is Illuminated
Jan 23
Waning Gibbous
Jan 23
Last Quarter
Jan 30
New
Feb 6
First Quarter
Feb 14
Full

Hourly Weather History & Observations

Time (MST) Temp. Windchill Dew Point Humidity Pressure Visibility Wind Dir Wind Speed Gust Speed Precip Events Conditions
12:10 AM 12.2 °F -0.2 °F 8.6 °F 85% 30.40 in 3.0 mi East 9.2 mph - N/A Snow Light Snow
12:30 AM 10.4 °F -1.5 °F 8.6 °F 92% 30.40 in 4.0 mi ENE 8.1 mph - N/A Snow Light Snow
12:50 AM 10.4 °F -1.5 °F 8.6 °F 92% 30.40 in 4.0 mi ENE 8.1 mph - N/A Snow Light Snow
1:10 AM 10.4 °F -2.4 °F 6.8 °F 85% 30.41 in 4.0 mi NE 9.2 mph - N/A Snow Light Snow
1:30 AM 10.4 °F 0.8 °F 6.8 °F 85% 30.42 in 5.0 mi ENE 5.8 mph - N/A Snow Light Snow
1:50 AM 10.4 °F -1.5 °F 6.8 °F 85% 30.43 in 5.0 mi ENE 8.1 mph - N/A Snow Light Snow
2:10 AM 10.4 °F -1.5 °F 5.0 °F 79% 30.44 in 4.0 mi East 8.1 mph - N/A Snow Light Snow
2:30 AM 8.6 °F -1.3 °F 5.0 °F 85% 30.45 in 3.0 mi ESE 5.8 mph - N/A Snow Light Snow
2:50 AM 8.6 °F 0.1 °F 5.0 °F 85% 30.46 in 4.0 mi East 4.6 mph - N/A Snow Light Snow
3:10 AM 8.6 °F -1.3 °F 5.0 °F 85% 30.47 in 2.5 mi East 5.8 mph - N/A Snow Light Snow
3:30 AM 8.6 °F 0.1 °F 3.2 °F 79% 30.47 in 3.0 mi ESE 4.6 mph - N/A Snow Light Snow
3:50 AM 8.6 °F -1.3 °F 3.2 °F 79% 30.48 in 10.0 mi East 5.8 mph - N/A Snow Light Snow
4:10 AM 8.6 °F 2.0 °F 3.2 °F 79% 30.48 in 10.0 mi ESE 3.5 mph - N/A Snow Light Snow
4:30 AM 8.6 °F 2.0 °F 3.2 °F 79% 30.49 in 7.0 mi SE 3.5 mph - N/A Snow Light Snow
4:50 AM 8.6 °F 0.1 °F 1.4 °F 73% 30.50 in 10.0 mi SE 4.6 mph - N/A Snow Light Snow
5:10 AM 6.8 °F - 1.4 °F 79% 30.50 in 7.0 mi Calm Calm - N/A Snow Light Snow
5:30 AM 5.0 °F - 1.4 °F 85% 30.51 in 10.0 mi Calm Calm - N/A Snow Light Snow
5:50 AM 5.0 °F -2.1 °F 1.4 °F 85% 30.52 in 7.0 mi SSE 3.5 mph - N/A Snow Light Snow
6:10 AM 3.2 °F -4.2 °F -0.4 °F 85% 30.53 in 7.0 mi SE 3.5 mph - N/A Snow Light Snow
6:30 AM 5.0 °F -2.1 °F 1.4 °F 85% 30.54 in 7.0 mi SE 3.5 mph - N/A Snow Light Snow
6:50 AM 1.4 °F - -2.2 °F 85% 30.55 in 10.0 mi Calm Calm - N/A   Overcast
7:10 AM 5.0 °F -5.6 °F 1.4 °F 85% 30.55 in 10.0 mi SSW 5.8 mph - N/A Snow Light Snow
7:30 AM 6.8 °F -3.5 °F 1.4 °F 79% 30.56 in 10.0 mi SSW 5.8 mph - N/A Snow Light Snow
7:50 AM 6.8 °F -3.5 °F 3.2 °F 85% 30.57 in 10.0 mi SSW 5.8 mph - N/A Snow Light Snow
8:10 AM 6.8 °F -3.5 °F 1.4 °F 79% 30.57 in 10.0 mi SSW 5.8 mph - N/A   Overcast
8:30 AM 5.0 °F -4.1 °F 1.4 °F 85% 30.57 in 10.0 mi SSW 4.6 mph - N/A Snow Light Snow
8:50 AM 8.6 °F 2.0 °F 3.2 °F 79% 30.58 in 10.0 mi SSW 3.5 mph - N/A Snow Light Snow
9:10 AM 8.6 °F 2.0 °F 3.2 °F 79% 30.58 in 10.0 mi SSW 3.5 mph - N/A   Overcast
9:30 AM 10.4 °F -1.5 °F 3.2 °F 73% 30.58 in 10.0 mi SW 8.1 mph - N/A Snow Light Snow
9:50 AM 10.4 °F 0.8 °F 3.2 °F 73% 30.59 in 10.0 mi SW 5.8 mph - N/A   Mostly Cloudy
10:10 AM 12.2 °F 1.7 °F 5.0 °F 73% 30.58 in 10.0 mi SW 6.9 mph - N/A   Clear
10:30 AM 12.2 °F 1.7 °F 5.0 °F 73% 30.59 in 10.0 mi SW 6.9 mph - N/A   Clear
10:50 AM 14.0 °F 2.0 °F 5.0 °F 67% 30.58 in 10.0 mi SW 9.2 mph - N/A   Clear
11:10 AM 14.0 °F 2.0 °F 5.0 °F 67% 30.57 in 10.0 mi SW 9.2 mph - N/A   Clear
11:30 AM 15.8 °F 3.4 °F 6.8 °F 68% 30.56 in 10.0 mi SW 10.4 mph - N/A   Clear
11:50 AM 15.8 °F 4.2 °F 6.8 °F 68% 30.55 in 10.0 mi SW 9.2 mph - N/A   Clear
12:10 PM 17.6 °F 5.0 °F 8.6 °F 68% 30.54 in 10.0 mi WSW 11.5 mph - N/A   Clear
12:30 PM 17.6 °F 5.0 °F 8.6 °F 68% 30.53 in 10.0 mi WSW 11.5 mph - N/A   Clear
12:50 PM 19.4 °F 7.2 °F 8.6 °F 63% 30.52 in 10.0 mi WSW 11.5 mph - N/A   Clear
1:10 PM 19.4 °F 7.2 °F 8.6 °F 63% 30.51 in 10.0 mi WSW 11.5 mph - N/A   Clear
1:30 PM 19.4 °F 7.2 °F 8.6 °F 63% 30.50 in 10.0 mi WSW 11.5 mph - N/A   Clear
1:50 PM 19.4 °F 7.2 °F 10.4 °F 68% 30.49 in 10.0 mi WSW 11.5 mph - N/A   Clear
2:10 PM 19.4 °F 6.6 °F 10.4 °F 68% 30.48 in 10.0 mi WSW 12.7 mph - N/A   Clear
2:30 PM 21.2 °F 8.9 °F 10.4 °F 63% 30.48 in 10.0 mi WSW 12.7 mph - N/A   Clear
2:50 PM 19.4 °F 7.9 °F 10.4 °F 68% 30.47 in 10.0 mi WSW 10.4 mph - N/A   Clear
3:10 PM 21.2 °F 8.9 °F 10.4 °F 63% 30.47 in 10.0 mi WSW 12.7 mph - N/A   Clear
3:30 PM 21.2 °F 10.9 °F 10.4 °F 63% 30.47 in 10.0 mi WSW 9.2 mph - N/A   Clear
3:50 PM 19.4 °F 8.6 °F 10.4 °F 68% 30.46 in 10.0 mi WSW 9.2 mph - N/A   Clear
4:10 PM 19.4 °F 7.9 °F 10.4 °F 68% 30.45 in 10.0 mi WSW 10.4 mph - N/A   Clear
4:30 PM 17.6 °F 6.4 °F 10.4 °F 73% 30.44 in 10.0 mi WSW 9.2 mph - N/A   Clear
4:50 PM 14.0 °F 2.0 °F 8.6 °F 79% 30.43 in 10.0 mi WSW 9.2 mph - N/A   Clear
5:10 PM 10.4 °F -1.5 °F 5.0 °F 79% 30.43 in 10.0 mi WSW 8.1 mph - N/A   Clear
5:30 PM 5.0 °F -8.1 °F 1.4 °F 85% 30.43 in 10.0 mi West 8.1 mph - N/A   Clear
5:50 PM 3.2 °F -11.3 °F 1.4 °F 92% 30.42 in 10.0 mi West 9.2 mph - N/A   Clear
6:10 PM 3.2 °F -10.3 °F -0.4 °F 85% 30.41 in 10.0 mi West 8.1 mph - N/A   Clear
6:30 PM 3.2 °F -10.3 °F -0.4 °F 85% 30.41 in 10.0 mi West 8.1 mph - N/A   Clear
6:50 PM 5.0 °F -10.0 °F 1.4 °F 85% 30.39 in 10.0 mi WSW 10.4 mph - N/A   Clear
7:10 PM 1.4 °F -12.5 °F -0.4 °F 92% 30.40 in 10.0 mi SW 8.1 mph - N/A   Clear
7:30 PM 1.4 °F -12.5 °F -4.0 °F 78% 30.40 in 10.0 mi WSW 8.1 mph - N/A   Clear
7:50 PM 3.2 °F -10.3 °F -0.4 °F 85% 30.39 in 10.0 mi SSW 8.1 mph - N/A   Clear
8:10 PM 1.4 °F -9.9 °F -2.2 °F 85% 30.40 in 10.0 mi SSW 5.8 mph - N/A   Clear
8:30 PM 1.4 °F -9.9 °F -2.2 °F 85% 30.38 in 10.0 mi South 5.8 mph - N/A   Clear
8:50 PM -0.4 °F -15.7 °F -2.2 °F 92% 30.37 in 10.0 mi SSW 9.2 mph - N/A   Clear
9:10 PM 3.2 °F -12.2 °F -0.4 °F 85% 30.36 in 10.0 mi SW 10.4 mph - N/A   Clear
9:30 PM 1.4 °F -14.5 °F -0.4 °F 92% 30.36 in 10.0 mi SSW 10.4 mph - N/A   Clear
9:50 PM 1.4 °F -13.5 °F -0.4 °F 92% 30.35 in 10.0 mi SSW 9.2 mph - N/A   Clear
10:10 PM 1.4 °F -14.5 °F -0.4 °F 92% 30.35 in 10.0 mi SSW 10.4 mph - N/A   Clear
10:30 PM 1.4 °F -15.3 °F -0.4 °F 92% 30.33 in 10.0 mi SSW 11.5 mph - N/A   Clear
10:50 PM 1.4 °F -16.1 °F -2.2 °F 85% 30.31 in 10.0 mi SSW 12.7 mph - N/A   Clear
11:10 PM 1.4 °F -15.3 °F -2.2 °F 85% 30.30 in 10.0 mi SSW 11.5 mph - N/A   Clear
11:30 PM 1.4 °F -14.5 °F -4.0 °F 78% 30.28 in 10.0 mi SSW 10.4 mph - N/A   Clear
11:50 PM 1.4 °F -16.1 °F -4.0 °F 78% 30.28 in 10.0 mi SSW 12.7 mph - N/A   Clear